• In United Kingdom
  • List of Countries
  • For 7 days
  • Water Temperature
  • Satellite Maps
  • Weather Map
  • Weather Widgets
  • user-avatar
    Login

    Hourly Weather Lisburn

    Today, 19 September, Wednesday

    Time Temperature Precipitation Wind Pressure Humidity
    00:00 +10°C° 0 mm 9 mps 746 mmHg 80%
    01:00 +10°C° 0 mm 9 mps 746 mmHg 80%
    02:00 +10°C° 0 mm 8 mps 746 mmHg 79%
    03:00 +10°C° 0 mm 8 mps 746 mmHg 79%
    04:00 +10°C° 0.5 mm 8 mps 745 mmHg 84%
    05:00 +11°C° 0.5 mm 9 mps 744 mmHg 88%
    06:00 +11°C° 0 mm 9 mps 741 mmHg 97%
    07:00 +12°C° 1 mm 11 mps 740 mmHg 93%
    08:00 +12°C° 1 mm 13 mps 739 mmHg 89%
    09:00 +13°C° 1 mm 16 mps 737 mmHg 85%
    10:00 +13°C° 0.1 mm 16 mps 739 mmHg 78%
    11:00 +11°C° 0.1 mm 16 mps 740 mmHg 72%
    12:00 +11°C° 0.1 mm 16 mps 742 mmHg 65%
    13:00 +11°C° 0 mm 15 mps 743 mmHg 64%
    14:00 +10°C° 0 mm 13 mps 745 mmHg 63%
    15:00 +10°C° 0 mm 12 mps 746 mmHg 62%
    16:00 +11°C° 0 mm 11 mps 747 mmHg 63%
    17:00 +9°C° 0 mm 10 mps 747 mmHg 64%
    18:00 +8°C° 0 mm 9 mps 748 mmHg 65%
    19:00 +8°C° 0 mm 10 mps 748 mmHg 66%
    20:00 +8°C° 0 mm 10 mps 749 mmHg 67%
    21:00 +7°C° 0 mm 10 mps 749 mmHg 68%
    22:00 +7°C° 0 mm 9 mps 750 mmHg 70%
    23:00 +7°C° 0 mm 9 mps 750 mmHg 72%

    Tomorrow, 20 September, Thursday

    Time Temperature Precipitation Wind Pressure Humidity
    00:00 +7°C° 0 mm 9 mps 750 mmHg 73%
    01:00 +7°C° 0 mm 9 mps 750 mmHg 75%
    02:00 +6°C° 0 mm 8 mps 750 mmHg 77%
    03:00 +6°C° 0 mm 8 mps 750 mmHg 79%
    04:00 +6°C° 0 mm 7 mps 750 mmHg 81%
    05:00 +6°C° 0 mm 7 mps 751 mmHg 83%
    06:00 +5°C° 0 mm 6 mps 751 mmHg 85%
    07:00 +7°C° 0 mm 6 mps 751 mmHg 83%
    08:00 +8°C° 0 mm 5 mps 751 mmHg 81%
    09:00 +9°C° 0 mm 5 mps 751 mmHg 78%
    10:00 +10°C° 0 mm 4 mps 750 mmHg 77%
    11:00 +11°C° 0 mm 3 mps 750 mmHg 76%
    12:00 +11°C° 0 mm 3 mps 749 mmHg 75%
    13:00 +11°C° 0.9 mm 3 mps 748 mmHg 80%
    14:00 +10°C° 0.9 mm 3 mps 747 mmHg 85%
    15:00 +9°C° 0.9 mm 2 mps 746 mmHg 89%
    16:00 +9°C° 1 mm 3 mps 744 mmHg 91%
    17:00 +8°C° 1 mm 3 mps 743 mmHg 93%
    18:00 +7°C° 1 mm 4 mps 742 mmHg 95%
    19:00 +6°C° 1.6 mm 5 mps 742 mmHg 95%
    20:00 +5°C° 1.6 mm 7 mps 742 mmHg 95%
    21:00 +5°C° 1.6 mm 8 mps 742 mmHg 95%
    22:00 +5°C° 0.7 mm 8 mps 742 mmHg 94%
    23:00 +5°C° 0.7 mm 8 mps 742 mmHg 92%

    Day after tomorrow, 21 September, Friday

    Time Temperature Precipitation Wind Pressure Humidity
    00:00 +5°C° 0.7 mm 8 mps 743 mmHg 91%
    01:00 +5°C° 0.1 mm 8 mps 743 mmHg 91%
    02:00 +5°C° 0.1 mm 8 mps 743 mmHg 91%
    03:00 +4°C° 0.1 mm 8 mps 744 mmHg 90%
    04:00 +4°C° 0 mm 8 mps 744 mmHg 90%
    05:00 +4°C° 0 mm 8 mps 744 mmHg 90%
    06:00 +4°C° 0 mm 8 mps 744 mmHg 90%
    07:00 +5°C° 0.5 mm 9 mps 744 mmHg 89%
    08:00 +6°C° 0.5 mm 11 mps 745 mmHg 88%
    09:00 +7°C° 0.5 mm 12 mps 746 mmHg 86%
    10:00 +8°C° 0.1 mm 11 mps 747 mmHg 82%
    11:00 +9°C° 0.1 mm 11 mps 748 mmHg 77%
    12:00 +11°C° 0.1 mm 10 mps 750 mmHg 73%
    13:00 +11°C° 0.1 mm 9 mps 750 mmHg 71%
    14:00 +10°C° 0.1 mm 9 mps 751 mmHg 70%
    15:00 +10°C° 0.1 mm 9 mps 752 mmHg 68%
    16:00 +10°C° 0.1 mm 8 mps 753 mmHg 70%
    17:00 +9°C° 0.1 mm 7 mps 753 mmHg 72%
    18:00 +8°C° 0.1 mm 7 mps 754 mmHg 75%
    19:00 +6°C° 0 mm 7 mps 754 mmHg 76%
    20:00 +6°C° 0 mm 7 mps 755 mmHg 77%
    21:00 +5°C° 0 mm 7 mps 755 mmHg 79%
    22:00 +5°C° 0 mm 7 mps 756 mmHg 80%
    23:00 +5°C° 0 mm 7 mps 756 mmHg 81%

    22 September, Saturday

    Time Temperature Precipitation Wind Pressure Humidity
    00:00 +5°C° 0 mm 8 mps 756 mmHg 82%
    01:00 +5°C° 0 mm 7 mps 757 mmHg 84%
    02:00 +5°C° 0 mm 7 mps 757 mmHg 86%
    03:00 +5°C° 0 mm 6 mps 757 mmHg 88%
    04:00 +4°C° 0 mm 6 mps 758 mmHg 89%
    05:00 +5°C° 0 mm 5 mps 758 mmHg 91%
    06:00 +5°C° 0 mm 5 mps 758 mmHg 93%
    07:00 +6°C° 0 mm 5 mps 759 mmHg 89%
    08:00 +7°C° 0 mm 4 mps 759 mmHg 85%
    09:00 +8°C° 0 mm 4 mps 759 mmHg 81%
    10:00 +10°C° 0.1 mm 4 mps 759 mmHg 77%
    11:00 +11°C° 0.1 mm 4 mps 760 mmHg 73%
    12:00 +12°C° 0.1 mm 4 mps 760 mmHg 69%
    13:00 +12°C° 0.1 mm 4 mps 760 mmHg 69%
    14:00 +12°C° 0.1 mm 3 mps 759 mmHg 68%
    15:00 +11°C° 0.1 mm 3 mps 759 mmHg 68%
    16:00 +12°C° 0.1 mm 2 mps 759 mmHg 71%
    17:00 +10°C° 0.1 mm 2 mps 758 mmHg 75%
    18:00 +10°C° 0.1 mm 1 mps 758 mmHg 78%
    19:00 +8°C° 0.2 mm 2 mps 758 mmHg 80%
    20:00 +8°C° 0.2 mm 2 mps 757 mmHg 81%
    21:00 +8°C° 0.2 mm 3 mps 757 mmHg 83%
    22:00 +8°C° 0.7 mm 3 mps 756 mmHg 85%
    23:00 +6°C° 0.7 mm 4 mps 754 mmHg 88%

    23 September, Sunday

    Time Temperature Precipitation Wind Pressure Humidity
    00:00 +6°C° 0.7 mm 5 mps 753 mmHg 90%
    01:00 +5°C° 0.9 mm 6 mps 752 mmHg 91%
    02:00 +5°C° 0.9 mm 8 mps 750 mmHg 91%
    03:00 +5°C° 0.9 mm 9 mps 749 mmHg 91%
    04:00 +5°C° 2 mm 10 mps 748 mmHg 90%
    05:00 +4°C° 2 mm 11 mps 748 mmHg 90%
    06:00 +4°C° 2 mm 11 mps 748 mmHg 89%
    07:00 +4°C° 1 mm 12 mps 748 mmHg 88%
    08:00 +4°C° 1 mm 12 mps 749 mmHg 88%
    09:00 +5°C° 1 mm 13 mps 749 mmHg 87%
    10:00 +5°C° 0.5 mm 13 mps 751 mmHg 84%
    11:00 +7°C° 0.5 mm 13 mps 752 mmHg 80%
    12:00 +7°C° 0.5 mm 13 mps 753 mmHg 77%
    13:00 +8°C° 0 mm 12 mps 754 mmHg 71%
    14:00 +8°C° 0 mm 12 mps 756 mmHg 66%
    15:00 +9°C° 0 mm 11 mps 757 mmHg 60%
    16:00 +8°C° 0 mm 11 mps 758 mmHg 62%
    17:00 +7°C° 0 mm 10 mps 759 mmHg 64%
    18:00 +6°C° 0 mm 9 mps 760 mmHg 66%
    19:00 +6°C° 0 mm 9 mps 761 mmHg 68%
    20:00 +5°C° 0 mm 8 mps 763 mmHg 69%
    21:00 +5°C° 0 mm 8 mps 764 mmHg 71%
    22:00 +5°C° 0 mm 7 mps 765 mmHg 73%
    23:00 +5°C° 0 mm 7 mps 765 mmHg 74%

    24 September, Monday

    Time Temperature Precipitation Wind Pressure Humidity
    00:00 +4°C° 0 mm 6 mps 766 mmHg 76%
    01:00 +4°C° 0 mm 6 mps 767 mmHg 78%
    02:00 +4°C° 0 mm 6 mps 767 mmHg 80%
    03:00 +5°C° 0 mm 5 mps 767 mmHg 83%
    04:00 +5°C° 0 mm 5 mps 767 mmHg 84%
    05:00 +5°C° 0 mm 5 mps 768 mmHg 85%
    06:00 +5°C° 0 mm 5 mps 768 mmHg 86%
    07:00 +5°C° 0 mm 6 mps 769 mmHg 81%
    08:00 +7°C° 0 mm 6 mps 769 mmHg 77%
    09:00 +9°C° 0 mm 7 mps 770 mmHg 72%
    10:00 +9°C° 0 mm 7 mps 770 mmHg 70%
    11:00 +10°C° 0 mm 7 mps 770 mmHg 69%
    12:00 +11°C° 0 mm 7 mps 771 mmHg 67%
    13:00 +11°C° 0.1 mm 6 mps 771 mmHg 68%
    14:00 +11°C° 0.1 mm 6 mps 771 mmHg 69%
    15:00 +11°C° 0.1 mm 6 mps 771 mmHg 70%
    16:00 +10°C° 0 mm 5 mps 771 mmHg 74%
    17:00 +10°C° 0 mm 4 mps 771 mmHg 78%
    18:00 +9°C° 0 mm 3 mps 771 mmHg 82%
    19:00 +8°C° 0 mm 3 mps 771 mmHg 85%
    20:00 +7°C° 0 mm 3 mps 772 mmHg 88%
    21:00 +5°C° 0 mm 3 mps 772 mmHg 90%
    22:00 +7°C° 0 mm 3 mps 771 mmHg 88%
    23:00 +7°C° 0 mm 4 mps 771 mmHg 85%
    Show more